STARLINK-34388, 64294

Orbit data source: Space-Track

STARLINK-34388, 64294 is a payload satellite owned by SpaceX/Seattle (US) in LEO that was launched on Sun, 08 Jun 2025 UTC via an FALCON 9 launch vehicle from the Air Force Western Test Range (AFWTR). Payload-class satellites include a variety of spacecraft equipped with specific instruments for various scientific and technological missions. These include communications satellites like Starlink; space stations such as the ISS; scientific satellites like the Hubble; Earth observation satellites from companies like Planet Labs, Umbra, and HawkEye 360; GPS; miniature CubeSats for education and research; and military/defense satellites.

Loading next visibility...
Identifier
64294, 2025-123D
Orbit
LEO
Country
Flag of USUS
Related business
Manufacturer
SpaceX/Seattle
Mission
Operational Commercial Communications
Bus & Motor
STARLINK V2MO, Unknown motor
Mass
575 kg wet, ~530 kg dry
Launch date (UTC)
2025-06-08 (10 months ago)
Launch vehicle
FALCON 9
Launch site
Air Force Western Test Range (AFWTR)
Object type
Payload
Rocket body
Debris
Shape & HBR
Box + 2 Pan, 17.7 m
Radar Cross Section
36.964 m², Large (>1 m²)

Expand to show TLE details & history
Last TLE update: 17 hours ago

TLE from 17 hours ago
0 STARLINK-34388
1 64294U 25123D   26093.51430002  .00006558  00000-0  55672-3 0  9995
2 64294  70.0003 131.9994 0003552 270.9416  89.1336 14.98341935 46554
Epoch: 2026-04-03T12:20Z
TLE epoch observation values (Epoch: 2026-04-03T12:20:35.521Z)
Latitude
-0.00005°
Longitude
115.00404°
Altitude
574.406 km
Speed
7.574 km/s
True Right ascension
08h 47m 59s
True Declination
0° 00' 00"
Sunlit
Object was in full shadow at epoch
Visualization orbit readout
Latitude
Unknown
Longitude
Unknown
Altitude
Unknown
Speed
Unknown
Apparent Right ascension
Unknown
Apparent Declination
Unknown
Sunlit
N/A
Visualization observer readout
Local Sidereal Time
11:21:13
Azimuth
Unknown
Elevation
Unknown
Doppler factor
Unknown
Orbital elements
Apogee altitude
572.435 km
Perigee altitude
567.499 km
Semi-major axis
6,948.104 km
Eccentricity
0.00036
Inclination
70.0003°
RAAN
131.9994°
Arg. of periapsis
270.9416°
True anomaly
89.1743°
Mean anomaly
89.1336°
Eccentric anomaly
89.15395°
Mean motion
3.74752 °/min
Orbital period
96.06 mins
BSTAR
0.00055672
Loading maneuver chart data...
Computing Atmospheric mass density...
Loading historical data...
Loading historical data...
Loading historical data...
Loading historical data...
Loading historical data...
Loading historical data...
Loading historical data...

Documentation

Showing up to 5 results
|